IW2GOB-3 Weather Reports


time (UTC)temp
C
wind
direction
speed
KPH
gust
KPH
rain 1hr
cm
rain 24hr
cm
rain mn
cm
humidity
%
barometer
mb
20260504130521 22 282 9.7 12.9 0.00 0.00 0.00 35 1015.9
20260504110521 22 269 8.0 11.3 0.00 0.00 0.00 35 1016.5
20260504100521 21 355 4.8 8.0 0.00 0.00 0.00 34 1016.8
20260504081521 19 335 1.6 4.8 0.00 0.00 0.00 40 1017.0
20260504080521 19 310 8.0 9.7 0.00 0.00 0.00 40 1017.0
20260504050521 15 266 0.0 0.0 0.00 0.00 0.00 56 1015.9
20260504045520 14 266 0.0 1.6 0.00 0.00 0.00 56 1015.8
20260504044520 14 266 1.6 3.2 0.00 0.00 0.00 56 1015.8
20260504043520 14 229 3.2 4.8 0.00 0.00 0.00 56 1015.8
20260504042520 15 241 4.8 4.8 0.00 0.00 0.00 55 1015.7
20260504041520 15 227 1.6 3.2 0.00 0.00 0.00 53 1015.6
20260504040520 15 250 1.6 3.2 0.00 0.00 0.00 51 1015.4
20260504035520 15 250 1.6 3.2 0.00 0.00 0.00 51 1015.4
20260504034520 15 253 0.0 1.6 0.00 0.00 0.00 51 1015.4
20260504033520 15 265 3.2 4.8 0.00 0.00 0.00 51 1015.5
20260504032520 15 259 3.2 4.8 0.00 0.00 0.00 52 1015.5
20260504031520 15 261 1.6 3.2 0.00 0.00 0.00 53 1015.5
20260504030520 15 245 0.0 1.6 0.00 0.00 0.00 53 1015.5
20260504025520 15 245 1.6 3.2 0.00 0.00 0.00 52 1015.6
20260504024520 15 245 1.6 1.6 0.00 0.00 0.00 51 1015.6
20260504023520 16 245 0.0 1.6 0.00 0.00 0.00 50 1015.6
20260504022520 16 245 0.0 1.6 0.00 0.00 0.00 49 1015.6
20260504021520 16 245 1.6 1.6 0.00 0.00 0.00 49 1015.6
20260504020520 16 245 0.0 1.6 0.00 0.00 0.00 48 1015.6
20260504015520 17 245 0.0 1.6 0.00 0.00 0.00 47 1015.6
20260504014520 17 245 1.6 1.6 0.00 0.00 0.00 45 1015.6
20260504013520 17 269 1.6 1.6 0.00 0.00 0.00 43 1015.5
20260504012520 17 250 0.0 3.2 0.00 0.00 0.00 43 1015.5
20260504011520 17 290 0.0 1.6 0.00 0.00 0.00 43 1015.6
20260504010520 17 311 1.6 3.2 0.00 0.00 0.00 42 1015.6
20260504005520 17 321 1.6 1.6 0.00 0.00 0.00 43 1015.6
20260504004520 17 315 1.6 3.2 0.00 0.00 0.00 43 1015.7
20260504003520 17 311 1.6 3.2 0.00 0.00 0.00 43 1015.7
20260504002520 17 311 1.6 3.2 0.00 0.00 0.00 43 1015.8
20260504001520 17 294 1.6 1.6 0.00 0.00 0.00 43 1015.9
20260504000520 17 303 1.6 4.8 0.00 0.00 0.00 43 1016.1
20260503235520 17 276 1.6 3.2 0.00 0.00 0.00 43 1016.2
20260503234520 17 267 1.6 3.2 0.00 0.00 0.00 43 1016.2
20260503233520 17 305 0.0 3.2 0.00 0.00 0.00 44 1016.3
20260503232520 17 275 3.2 4.8 0.00 0.00 0.00 44 1016.3
20260503231520 18 292 1.6 8.0 0.00 0.00 0.00 44 1016.4
20260503230520 18 260 3.2 4.8 0.00 0.00 0.00 44 1016.4
20260503225520 18 261 4.8 8.0 0.00 0.00 0.00 43 1016.4
20260503224520 18 261 3.2 4.8 0.00 0.00 0.00 43 1016.5
20260503223520 18 259 3.2 4.8 0.00 0.00 0.00 43 1016.4
20260503222520 18 263 3.2 4.8 0.00 0.00 0.00 43 1016.4
20260503221520 18 256 3.2 4.8 0.00 0.00 0.00 42 1016.5
20260503220520 18 273 0.0 1.6 0.00 0.00 0.00 42 1016.4
20260503215520 18 248 3.2 4.8 0.00 0.00 0.00 41 1016.3
20260503214520 18 275 4.8 4.8 0.00 0.00 0.00 41 1016.2
20260503213520 19 289 3.2 4.8 0.00 0.00 0.00 40 1016.2
20260503212520 19 282 1.6 9.7 0.00 0.00 0.00 40 1016.2
20260503211520 19 309 4.8 9.7 0.00 0.00 0.00 40 1016.1
20260503210520 19 287 4.8 11.3 0.00 0.00 0.00 40 1016.1
20260503205520 19 270 3.2 4.8 0.00 0.00 0.00 40 1016.0
20260503204520 19 301 3.2 8.0 0.00 0.00 0.00 39 1016.0
20260503203520 20 303 3.2 11.3 0.00 0.00 0.00 39 1015.9
20260503202520 20 276 3.2 8.0 0.00 0.00 0.00 39 1016.0
20260503201520 20 300 3.2 8.0 0.00 0.00 0.00 40 1015.9
20260503200520 20 273 3.2 4.8 0.00 0.00 0.00 39 1015.9
20260503195520 20 264 4.8 9.7 0.00 0.00 0.00 39 1015.7
20260503194520 20 261 4.8 8.0 0.00 0.00 0.00 39 1015.6
20260503193520 20 262 4.8 9.7 0.00 0.00 0.00 38 1015.5
20260503192520 20 263 8.0 8.0 0.00 0.00 0.00 38 1015.4
20260503191520 21 268 4.8 8.0 0.00 0.00 0.00 38 1015.3
20260503190520 21 263 3.2 4.8 0.00 0.00 0.00 38 1015.2
20260503185520 21 279 4.8 12.9 0.00 0.00 0.00 37 1015.2
20260503184520 21 259 4.8 8.0 0.00 0.00 0.00 36 1015.1
20260503183520 21 267 4.8 8.0 0.00 0.00 0.00 35 1015.0
20260503182520 22 260 8.0 9.7 0.00 0.00 0.00 35 1015.0
20260503181520 22 258 4.8 9.7 0.00 0.00 0.00 34 1015.0
20260503180520 22 254 8.0 11.3 0.00 0.00 0.00 34 1015.0
20260503175520 23 248 3.2 4.8 0.00 0.00 0.00 35 1015.0
20260503174520 23 262 3.2 4.8 0.00 0.00 0.00 34 1014.8
20260503173520 23 265 4.8 4.8 0.00 0.00 0.00 33 1014.8
20260503172520 23 261 3.2 4.8 0.00 0.00 0.00 33 1014.8
20260503171520 23 277 3.2 4.8 0.00 0.00 0.00 32 1014.9
20260503170520 23 277 1.6 4.8 0.00 0.00 0.00 32 1015.0
20260503150519 24 270 3.2 8.0 0.00 0.00 0.00 32 1015.5